Wind_Speed
40 41 42 43 42 43 46 49 51 53 54 54 54 54 55 56 56 56 55 56 58 60 63 65 66 67 68 68 67 66 66 66 66 63 62 59 55 51 49 50 51 51 52
42 43 45 46 47 49 50 51 52 53 53 53 54 55 56 56 55 54 55 57 59 61 63 65 65 66 65 65 65 64 64 63 61 58 53 49 46 44 42 41 40 40 41
44 46 48 49 50 50 51 52 53 53 54 57 59 59 58 56 54 54 56 58 60 62 63 64 63 63 63 63 62 60 57 54 52 49 44 42 40 39 37 35 33 33 33
50 51 51 51 51 52 53 54 54 56 59 63 65 62 58 53 53 55 57 59 61 62 62 62 62 62 61 59 54 50 47 46 44 42 37 35 33 31 30 29 28 27 28
55 54 53 53 53 54 55 56 58 61 64 64 62 57 52 51 53 56 58 59 60 60 60 61 60 57 54 49 45 43 43 41 39 34 29 26 25 25 25 24 22 23 24
56 54 54 55 56 57 59 62 64 63 60 57 52 49 50 51 54 56 58 58 58 59 58 57 53 48 44 42 40 39 39 35 29 24 21 20 20 20 19 18 16 17 17
53 54 55 58 59 61 63 63 60 56 50 46 46 49 51 52 54 55 56 56 56 56 53 48 44 41 40 37 35 34 32 27 20 16 14 16 15 14 12 11 10 10 10
50 52 55 58 59 58 57 54 50 47 44 45 47 50 52 52 53 53 53 53 52 48 44 39 37 36 35 32 29 26 21 16 12 10 10 9 8 7 6 4 4 4 4
49 52 55 57 56 53 50 46 43 43 44 46 48 50 51 51 51 50 49 46 43 38 35 33 33 32 30 26 20 15 12 9 7 5 4 3 3 2 1 1 1 1 2
49 52 54 54 51 48 44 43 43 44 46 48 48 49 50 49 48 45 41 37 33 30 28 29 29 26 21 16 11 7 4 2 2 3 3 4 5 5 4 4 3 2 3
49 51 52 50 47 44 42 42 44 46 47 48 49 48 46 43 40 36 32 28 24 23 23 23 21 17 12 8 5 4 6 6 6 6 7 7 7 7 6 5 5 7 8
46 45 43 41 41 42 43 44 45 47 47 47 45 42 38 34 31 27 23 20 18 18 18 15 12 9 7 7 8 9 10 10 9 8 8 7 7 6 6 7 9 11 11
39 38 37 38 39 41 43 44 45 45 43 39 35 31 28 25 23 20 17 15 15 14 11 7 7 8 8 10 11 12 11 10 9 8 7 6 6 6 8 10 11 9 7
34 35 36 37 39 41 42 42 40 36 32 28 24 23 22 20 18 15 13 13 12 9 5 6 8 10 11 12 12 11 10 9 8 7 6 6 7 9 10 11 9 9 9
33 34 36 37 39 38 36 32 28 25 22 21 20 20 20 18 15 12 11 10 9 5 4 6 9 11 11 11 10 9 8 7 6 5 6 7 9 11 11 10 10 11 13
33 34 35 35 33 30 26 23 22 21 20 19 19 19 18 15 13 12 10 7 5 3 5 8 9 10 10 9 9 8 7 6 5 6 7 9 10 11 12 12 13 14 15
32 33 32 30 27 24 23 22 22 21 20 18 17 17 15 13 12 10 7 5 3 5 7 8 9 9 10 10 9 8 7 6 6 7 8 10 11 12 13 14 16 17 17
31 29 26 24 24 23 23 23 23 21 19 16 14 13 12 11 10 8 4 3 4 7 9 9 9 10 10 10 9 8 8 8 8 8 9 10 12 13 14 16 18 19 19
28 25 23 23 23 23 23 22 21 18 15 12 11 10 10 9 7 4 4 5 8 10 10 10 10 10 10 9 9 8 8 8 8 9 10 11 13 14 16 18 19 20 20
24 22 22 22 22 22 21 19 17 14 11 8 8 8 8 7 5 5 6 8 11 12 12 11 10 10 10 9 8 7 7 8 8 9 11 12 13 15 17 18 19 20 21
21 21 21 21 21 20 18 15 13 12 9 7 7 8 8 7 7 8 10 11 13 13 12 11 10 9 10 9 8 8 8 8 9 11 12 13 15 16 18 19 20 20 21
20 20 20 19 18 16 15 13 12 11 9 8 7 8 8 9 11 12 13 14 14 13 11 10 10 10 10 10 9 9 9 10 11 12 13 14 15 16 17 17 18 19 20
19 19 19 17 15 14 13 12 12 11 10 9 9 10 10 12 13 14 15 14 13 12 10 9 10 11 11 11 10 11 11 12 13 13 13 15 15 16 16 16 16 17 18
22 20 18 16 15 14 14 13 13 12 12 11 11 12 13 14 16 16 15 14 13 11 10 10 10 11 12 12 11 12 12 13 14 14 14 15 16 16 16 16 15 15 16
25 23 21 18 17 16 15 15 15 14 14 14 14 14 16 17 17 17 16 15 13 11 11 10 11 11 12 13 12 12 13 13 13 14 15 16 17 17 17 16 16 16 16
29 28 25 23 21 19 18 18 17 16 16 16 16 16 17 18 17 17 16 15 14 12 11 11 11 12 12 13 13 13 13 13 13 14 14 15 16 16 16 16 16 16 16
Wind_Direction
286 288 289 289 292 295 297 299 299 299 298 297 297 297 299 300 299 298 297 296 298 299 300 300 299 298 297 296 296 296 295 294 292 291 290 287 284 282 280 278 276 273 270
291 291 292 293 295 296 297 298 297 296 294 294 295 297 298 299 298 297 297 298 300 300 300 299 299 298 298 297 297 296 295 294 293 292 290 287 284 284 284 282 280 275 269
294 295 295 295 295 296 297 296 295 294 294 295 293 294 295 297 297 297 298 300 300 300 300 300 300 300 299 299 298 297 297 296 294 292 289 285 284 285 284 282 279 273 267
295 296 295 293 293 293 295 295 295 294 294 293 291 291 293 295 297 298 300 301 301 301 302 302 302 301 301 300 300 300 299 298 296 293 289 285 284 283 283 282 278 271 265
295 296 293 291 292 292 293 294 293 292 292 291 292 293 295 297 299 300 301 302 303 304 305 304 303 302 302 302 303 302 300 299 297 293 289 284 282 283 286 285 279 271 266
294 294 291 289 291 291 291 290 289 289 290 292 294 296 298 299 300 301 303 305 306 306 305 304 304 304 305 305 304 303 301 301 299 294 289 285 285 288 289 286 278 269 262
291 290 289 288 289 293 293 292 290 291 293 296 299 300 300 301 303 305 306 308 307 306 305 305 306 307 307 305 303 301 299 299 298 294 291 292 291 293 290 282 273 260 248
289 289 289 288 289 291 294 296 297 299 301 302 301 301 303 304 306 308 309 308 307 306 307 308 310 312 311 309 305 301 299 298 297 296 298 299 298 297 291 272 253 242 241
288 287 287 289 293 298 302 303 304 303 303 303 303 305 306 308 310 310 309 307 306 308 311 314 316 317 316 314 311 307 303 301 301 305 314 325 341 353 4 354 312 292 279
287 288 290 295 302 306 308 307 305 304 305 306 307 308 309 310 310 309 307 307 308 312 317 320 321 323 324 324 323 322 329 6 47 51 55 58 59 60 56 49 37 7 334
288 291 296 302 306 308 307 306 306 307 307 308 308 309 310 309 308 306 307 309 312 317 321 323 325 331 341 354 18 61 82 84 81 77 76 72 68 64 57 38 9 342 325
294 298 303 306 307 307 307 308 308 309 309 309 310 309 308 307 307 309 312 315 320 324 326 327 337 357 24 54 76 86 86 85 82 76 73 75 71 56 28 3 348 337 328
303 306 308 308 308 308 308 308 309 309 310 311 311 310 309 310 312 316 320 324 329 332 336 352 17 40 64 80 88 89 86 80 74 71 70 66 49 22 4 356 353 357 13
308 309 309 309 309 309 310 311 313 314 315 315 316 317 318 319 322 325 329 334 338 345 6 39 56 66 75 83 88 86 81 74 70 66 55 39 21 7 1 3 18 37 54
310 310 310 311 312 315 317 319 321 323 324 324 324 326 327 329 332 335 337 341 347 4 63 79 80 77 78 80 81 78 74 69 62 50 37 26 16 10 12 28 48 66 70
313 313 315 318 320 323 325 327 328 328 327 326 327 329 331 334 336 337 340 347 2 74 108 100 88 81 80 77 74 72 68 65 59 50 41 32 24 23 33 50 67 75 80
318 320 323 324 326 327 328 328 328 328 327 326 327 330 332 333 334 335 341 1 49 117 121 107 92 87 84 79 75 71 69 72 72 61 49 39 36 40 50 64 71 74 82
324 325 326 326 326 327 328 328 329 328 328 327 329 332 332 333 334 339 359 46 108 128 124 110 97 94 88 78 73 74 78 81 77 65 55 50 51 57 68 73 75 76 79
328 328 328 328 329 330 331 331 332 331 330 330 334 337 337 338 344 6 59 92 118 126 121 110 102 96 84 76 73 78 85 86 78 69 67 65 66 76 82 81 79 77 77
331 331 332 333 334 336 338 339 341 342 342 344 349 352 355 4 30 65 87 104 118 121 115 107 98 88 75 71 73 85 93 91 86 84 82 78 82 91 93 89 84 80 76
340 339 338 339 341 344 348 352 357 2 7 9 8 14 25 43 65 82 92 105 117 116 108 98 88 76 68 68 77 92 100 99 99 98 92 89 94 102 102 96 90 85 80
346 345 345 346 349 354 0 7 13 18 24 28 31 41 55 68 77 85 92 103 113 113 104 90 77 67 64 69 85 98 106 110 109 106 100 98 102 108 108 103 97 91 86
360 358 357 359 4 10 17 23 26 32 41 50 58 69 76 80 84 88 93 101 106 104 95 81 68 64 65 70 86 101 111 116 116 111 106 105 107 112 113 110 105 100 95
17 15 15 18 24 30 34 37 41 47 56 64 72 80 86 90 91 92 94 98 100 96 87 77 70 68 69 74 86 100 111 119 121 115 112 111 111 113 113 112 110 108 105
31 30 33 37 41 44 46 49 53 59 66 72 78 84 91 94 94 93 93 94 93 90 84 78 75 72 73 77 83 96 109 118 121 118 117 116 114 113 110 108 107 106 106
40 41 44 47 50 52 54 56 60 65 70 74 79 85 90 92 92 92 90 89 88 85 83 80 79 78 76 77 82 92 104 113 117 117 119 120 117 112 109 106 105 105 104
Height
5768 5765 5762 5758 5754 5750 5746 5742 5736 5730 5725 5719 5713 5708 5702 5697 5691 5685 5679 5673 5667 5660 5653 5645 5638 5630 5622 5615 5607 5600 5593 5586 5582 5580 5575 5571 5568 5565 5563 5560 5559 5558 5559
5759 5755 5751 5747 5743 5739 5734 5729 5724 5718 5712 5706 5701 5695 5689 5684 5678 5672 5665 5659 5653 5645 5637 5630 5622 5614 5606 5598 5590 5583 5575 5568 5563 5561 5558 5554 5551 5549 5547 5545 5543 5542 5543
5748 5744 5740 5735 5731 5726 5721 5716 5710 5704 5699 5693 5687 5682 5676 5671 5665 5658 5652 5646 5638 5630 5622 5614 5606 5598 5590 5581 5573 5566 5559 5553 5547 5544 5542 5540 5538 5536 5534 5532 5531 5530 5530
5736 5732 5728 5723 5718 5713 5708 5703 5697 5691 5685 5679 5673 5667 5662 5658 5652 5644 5638 5631 5624 5616 5607 5599 5590 5581 5573 5565 5558 5551 5545 5540 5535 5531 5529 5528 5527 5525 5523 5522 5521 5520 5521
5724 5720 5715 5710 5705 5700 5695 5689 5683 5677 5671 5665 5659 5654 5649 5645 5638 5631 5625 5617 5609 5601 5592 5583 5574 5566 5557 5550 5545 5539 5534 5529 5524 5521 5520 5519 5518 5517 5515 5514 5513 5513 5513
5712 5707 5702 5697 5692 5687 5682 5676 5670 5663 5657 5651 5646 5641 5636 5631 5625 5618 5611 5603 5595 5586 5578 5568 5560 5552 5546 5540 5535 5529 5524 5519 5515 5513 5513 5512 5512 5510 5509 5508 5507 5507 5507
5700 5695 5690 5685 5680 5674 5668 5662 5656 5649 5644 5639 5635 5630 5625 5620 5612 5604 5597 5589 5581 5572 5564 5556 5549 5542 5536 5531 5526 5521 5516 5512 5509 5508 5508 5508 5507 5506 5505 5504 5503 5503 5503
5689 5684 5679 5673 5668 5662 5656 5650 5644 5638 5633 5628 5624 5618 5612 5606 5599 5591 5584 5576 5568 5560 5553 5546 5540 5533 5527 5522 5517 5513 5510 5508 5506 5506 5505 5505 5504 5503 5502 5502 5501 5502 5502
5677 5672 5667 5662 5656 5650 5643 5638 5633 5628 5623 5617 5612 5605 5599 5592 5587 5579 5572 5564 5557 5551 5544 5538 5532 5526 5521 5515 5511 5509 5507 5506 5505 5505 5504 5504 5503 5502 5502 5501 5501 5501 5501
5666 5661 5656 5650 5644 5638 5632 5627 5622 5617 5611 5605 5599 5593 5586 5580 5574 5568 5561 5555 5549 5543 5538 5532 5527 5521 5516 5512 5509 5507 5506 5506 5505 5505 5505 5504 5504 5503 5502 5502 5502 5502 5501
5655 5650 5645 5638 5633 5628 5623 5617 5612 5606 5600 5594 5588 5582 5575 5569 5563 5558 5553 5548 5542 5538 5534 5529 5524 5519 5515 5512 5509 5508 5508 5507 5507 5507 5507 5506 5506 5505 5504 5504 5503 5501 5500
5645 5640 5634 5629 5623 5618 5613 5607 5601 5595 5589 5583 5576 5570 5565 5559 5555 5550 5545 5541 5537 5534 5531 5527 5523 5519 5516 5514 5512 5511 5511 5510 5510 5510 5509 5509 5508 5507 5506 5504 5503 5501 5498
5635 5630 5625 5620 5615 5609 5603 5597 5591 5584 5578 5572 5567 5562 5557 5552 5548 5544 5540 5537 5534 5532 5529 5526 5523 5521 5518 5517 5515 5515 5515 5514 5513 5513 5512 5511 5510 5509 5507 5505 5502 5500 5497
5627 5622 5618 5613 5607 5600 5594 5587 5581 5575 5569 5564 5560 5555 5551 5547 5543 5540 5537 5535 5533 5531 5529 5527 5525 5523 5521 5520 5519 5519 5518 5517 5516 5516 5515 5514 5512 5510 5508 5505 5503 5500 5498
5620 5615 5610 5605 5598 5591 5584 5578 5573 5568 5563 5559 5555 5551 5547 5543 5540 5537 5535 5533 5532 5530 5530 5529 5527 5526 5525 5524 5523 5522 5521 5521 5520 5519 5518 5516 5514 5512 5509 5506 5504 5502 5501
5614 5608 5602 5596 5589 5584 5578 5573 5568 5564 5559 5555 5551 5547 5544 5541 5538 5536 5534 5533 5531 5531 5531 5531 5530 5529 5528 5528 5527 5526 5525 5523 5523 5522 5521 5519 5517 5514 5512 5510 5508 5507 5506
5607 5600 5594 5589 5583 5579 5574 5569 5564 5560 5555 5551 5548 5544 5541 5539 5537 5535 5533 5532 5532 5532 5533 5532 5532 5532 5531 5531 5530 5529 5528 5527 5526 5525 5524 5522 5520 5518 5516 5514 5513 5512 5511
5601 5595 5590 5584 5579 5574 5569 5564 5559 5555 5551 5548 5545 5542 5540 5538 5536 5534 5533 5533 5533 5534 5534 5535 5535 5534 5534 5534 5533 5532 5531 5530 5530 5529 5528 5526 5524 5523 5521 5521 5520 5519 5518
5595 5590 5585 5580 5575 5570 5564 5560 5555 5551 5548 5546 5543 5541 5539 5537 5535 5534 5534 5534 5534 5535 5536 5537 5537 5537 5537 5536 5535 5535 5534 5534 5534 5533 5532 5530 5529 5528 5528 5527 5527 5526 5525
5591 5586 5581 5576 5571 5566 5561 5557 5553 5549 5546 5544 5543 5541 5539 5537 5536 5535 5535 5535 5536 5538 5539 5540 5540 5540 5540 5539 5538 5538 5538 5538 5538 5537 5536 5535 5535 5534 5535 5534 5534 5534 5533
5587 5583 5578 5573 5568 5564 5559 5555 5552 5549 5546 5544 5543 5541 5540 5538 5537 5537 5537 5538 5539 5541 5542 5543 5543 5543 5542 5542 5541 5541 5541 5542 5542 5542 5541 5541 5540 5541 5541 5542 5542 5542 5542
5586 5581 5576 5571 5567 5563 5559 5555 5552 5549 5547 5545 5544 5542 5541 5541 5540 5540 5540 5541 5543 5544 5546 5546 5546 5546 5545 5544 5544 5544 5545 5545 5546 5547 5547 5546 5547 5547 5548 5549 5549 5550 5550
5585 5580 5575 5571 5566 5563 5559 5556 5553 5551 5548 5547 5546 5545 5544 5544 5544 5544 5545 5546 5547 5548 5549 5549 5549 5549 5548 5547 5547 5547 5548 5549 5550 5551 5552 5552 5553 5553 5554 5555 5556 5556 5557
5586 5581 5576 5571 5567 5564 5561 5558 5555 5553 5551 5550 5549 5548 5548 5548 5548 5549 5549 5550 5551 5552 5553 5553 5552 5552 5551 5551 5551 5551 5552 5553 5555 5556 5557 5558 5559 5560 5561 5562 5562 5563 5563
5589 5584 5578 5574 5570 5567 5564 5561 5559 5557 5555 5554 5553 5553 5552 5553 5553 5554 5554 5555 5555 5556 5556 5556 5556 5556 5556 5555 5555 5555 5556 5558 5559 5561 5562 5564 5565 5566 5567 5568 5568 5569 5570
5594 5588 5583 5578 5574 5571 5568 5566 5563 5562 5560 5559 5559 5558 5558 5558 5559 5559 5560 5560 5560 5560 5561 5561 5560 5560 5560 5560 5560 5560 5561 5563 5564 5566 5567 5569 5570 5571 5572 5573 5574 5575 5576